Orbital Elements at Epoch 2459000.5 (2020-May-31.0) TDB
Reference: JPL 21 (heliocentric ecliptic J2000)
Element | Value | Uncertainty (1-sigma) | Units |
e | .1449611954194041 | 5.1066e-08 | |
a | 2.281295386275215 | 6.4182e-09 | au |
q | 1.950596079975989 | 1.1791e-07 | au |
i | 6.982306322361444 | 4.8813e-06 | deg |
node | 34.67245796898654 | 3.0468e-05 | deg |
peri | 338.9258386663686 | 3.2733e-05 | deg |
M | 317.2023761613867 | 1.0665e-05 | deg |
tp | 2459150.119385461021 (2020-Oct-27.61938546) | 3.7215e-05 | TDB |
period | 1258.550684240807 3.45 | 5.3112e-06 1.454e-08 | d yr |
n | .2860433072007443 | 1.2071e-09 | deg/d |
Q | 2.611994692574442 | 7.3486e-09 | au |
|
| | Orbit Determination Parameters
Additional Information
|